Location: C.E.K. Mees Observatory
(42.7003°N, 77.4088°W)
Time: 16:56:01
(UTC-04:00)

Envisat - Pass Details

Date: 14 October 2017
Orbit: 764 x 766 km, 98.2° (Epoch: 23 October)

Event Time Altitude Azimuth Distance (km) Brightness Sun altitude
Exits shadow 22:00:13 22° 289° (WNW) 1,631 5.2 -38.7°
Drops below altitude 10° 22:03:03 10° 320° (NW) 2,308 6.1 -39.1°
Sets 22:05:47 0° 334° (NNW) 3,239 6.9 -39.6°
